QPF
0.00 0.01 0.01 0.01 0.01 0.01 0.00 0.00 0.00 0.00 0.00 0.00 0.00 0.00 0.00 0.00 0.00 0.00 0.00 0.00 0.00 0.00 0.01 0.01 0.01 0.01 0.01 0.00 0.00 0.00 0.00 0.00 0.00 0.01 0.01 0.01 0.01 0.01 0.01 0.00 0.00 0.00 0.01 0.01
0.00 0.00 0.01 0.01 0.00 0.01 0.01 0.01 0.00 0.00 0.00 0.00 0.00 0.00 0.00 0.00 0.00 0.01 0.00 0.00 0.00 0.00 0.00 0.00 0.00 0.00 0.00 0.01 0.01 0.00 0.00 0.00 0.00 0.00 0.00 0.01 0.01 0.02 0.02 0.02 0.01 0.00 0.00 0.01
0.01 0.00 0.01 0.01 0.00 0.00 0.00 0.00 0.01 0.00 0.00 0.00 0.00 0.00 0.00 0.01 0.01 0.01 0.00 0.00 0.00 0.00 0.00 0.00 0.00 0.00 0.00 0.01 0.01 0.01 0.00 0.00 0.00 0.00 0.00 0.01 0.01 0.00 0.01 0.02 0.03 0.02 0.01 0.01
0.01 0.01 0.01 0.01 0.00 0.00 0.00 0.00 0.01 0.01 0.00 0.00 0.00 0.00 0.00 0.00 0.01 0.01 0.00 0.00 0.00 0.00 0.00 0.00 0.00 0.00 0.00 0.01 0.01 0.01 0.00 0.01 0.00 0.00 0.00 0.00 0.01 0.01 0.01 0.01 0.01 0.01 0.01 0.01
0.01 0.01 0.01 0.01 0.01 0.01 0.00 0.00 0.00 0.00 0.00 0.00 0.00 0.00 0.01 0.00 0.01 0.01 0.01 0.01 0.01 0.01 0.00 0.00 0.00 0.00 0.00 0.00 0.00 0.01 0.00 0.00 0.00 0.00 0.00 0.00 0.01 0.02 0.01 0.01 0.01 0.01 0.01 0.01
0.01 0.02 0.02 0.01 0.01 0.01 0.01 0.01 0.00 0.00 0.00 0.01 0.01 0.01 0.02 0.01 0.01 0.02 0.02 0.03 0.02 0.01 0.00 0.00 0.00 0.00 0.00 0.00 0.00 0.00 0.00 0.00 0.00 0.00 0.00 0.00 0.00 0.01 0.01 0.00 0.00 0.00 0.00 0.00
0.01 0.02 0.02 0.02 0.01 0.01 0.02 0.02 0.01 0.01 0.01 0.02 0.02 0.02 0.02 0.02 0.02 0.01 0.01 0.02 0.03 0.01 0.01 0.01 0.01 0.00 0.00 0.00 0.00 0.00 0.00 0.00 0.00 0.00 0.00 0.00 0.00 0.00 0.00 0.00 0.00 0.00 0.00 0.01
0.02 0.03 0.03 0.02 0.02 0.01 0.01 0.01 0.01 0.01 0.02 0.03 0.04 0.04 0.04 0.03 0.02 0.02 0.02 0.02 0.02 0.02 0.02 0.01 0.01 0.00 0.00 0.00 0.00 0.00 0.00 0.00 0.00 0.00 0.00 0.00 0.00 0.01 0.01 0.01 0.01 0.00 0.01 0.01
0.02 0.04 0.04 0.04 0.03 0.03 0.02 0.01 0.01 0.01 0.03 0.05 0.05 0.05 0.07 0.05 0.04 0.03 0.03 0.02 0.02 0.01 0.01 0.01 0.00 0.00 0.00 0.00 0.00 0.00 0.00 0.00 0.00 0.00 0.00 0.00 0.01 0.01 0.01 0.01 0.01 0.02 0.02 0.02
0.02 0.03 0.03 0.03 0.03 0.03 0.02 0.02 0.02 0.02 0.04 0.06 0.07 0.08 0.07 0.05 0.03 0.03 0.02 0.02 0.01 0.01 0.00 0.00 0.00 0.00 0.00 0.00 0.00 0.00 0.00 0.00 0.00 0.00 0.00 0.01 0.01 0.01 0.02 0.02 0.02 0.01 0.01 0.02
0.02 0.02 0.02 0.02 0.02 0.02 0.02 0.02 0.02 0.03 0.04 0.05 0.05 0.04 0.03 0.02 0.01 0.01 0.01 0.01 0.01 0.01 0.00 0.00 0.00 0.00 0.01 0.01 0.01 0.01 0.00 0.00 0.00 0.00 0.01 0.01 0.01 0.02 0.01 0.01 0.02 0.02 0.02 0.02
0.02 0.02 0.02 0.02 0.01 0.01 0.01 0.01 0.01 0.02 0.03 0.03 0.03 0.02 0.01 0.01 0.01 0.01 0.01 0.01 0.01 0.01 0.01 0.01 0.01 0.01 0.01 0.01 0.01 0.01 0.01 0.01 0.01 0.01 0.01 0.01 0.01 0.01 0.01 0.01 0.01 0.01 0.01 0.02
0.01 0.01 0.01 0.01 0.01 0.00 0.00 0.01 0.01 0.01 0.02 0.02 0.02 0.02 0.01 0.01 0.01 0.01 0.01 0.01 0.01 0.01 0.01 0.01 0.01 0.01 0.01 0.01 0.01 0.02 0.02 0.02 0.01 0.01 0.01 0.02 0.01 0.01 0.01 0.01 0.02 0.02 0.02 0.03
0.00 0.00 0.00 0.00 0.00 0.00 0.01 0.01 0.01 0.01 0.01 0.01 0.01 0.01 0.01 0.01 0.01 0.01 0.01 0.01 0.00 0.00 0.00 0.01 0.01 0.01 0.02 0.02 0.02 0.02 0.03 0.02 0.02 0.02 0.02 0.02 0.02 0.02 0.02 0.01 0.01 0.01 0.01 0.02
0.00 0.00 0.00 0.00 0.00 0.00 0.00 0.00 0.00 0.00 0.00 0.00 0.00 0.00 0.01 0.01 0.01 0.01 0.00 0.00 0.00 0.00 0.01 0.01 0.01 0.01 0.01 0.02 0.02 0.02 0.02 0.02 0.03 0.03 0.03 0.02 0.02 0.02 0.02 0.01 0.01 0.01 0.01 0.01
0.00 0.00 0.00 0.00 0.00 0.00 0.00 0.00 0.00 0.00 0.00 0.00 0.00 0.00 0.01 0.01 0.01 0.00 0.00 0.00 0.00 0.00 0.01 0.01 0.01 0.01 0.01 0.01 0.01 0.01 0.01 0.02 0.02 0.02 0.02 0.02 0.02 0.01 0.01 0.01 0.01 0.01 0.01 0.02
0.00 0.00 0.00 0.00 0.00 0.00 0.00 0.01 0.01 0.01 0.01 0.00 0.00 0.00 0.00 0.00 0.00 0.00 0.00 0.00 0.00 0.00 0.00 0.00 0.01 0.01 0.01 0.01 0.01 0.01 0.01 0.01 0.01 0.01 0.01 0.02 0.02 0.02 0.01 0.01 0.02 0.02 0.02 0.02
0.00 0.00 0.00 0.00 0.00 0.00 0.00 0.00 0.01 0.01 0.01 0.02 0.01 0.01 0.01 0.01 0.01 0.01 0.01 0.00 0.00 0.00 0.01 0.01 0.01 0.01 0.00 0.00 0.00 0.01 0.01 0.01 0.01 0.01 0.01 0.01 0.01 0.01 0.01 0.01 0.01 0.01 0.01 0.01
0.00 0.00 0.00 0.00 0.00 0.00 0.00 0.00 0.00 0.00 0.01 0.01 0.01 0.01 0.01 0.01 0.01 0.01 0.01 0.01 0.01 0.01 0.01 0.00 0.01 0.01 0.01 0.00 0.01 0.01 0.01 0.01 0.01 0.01 0.01 0.01 0.01 0.01 0.01 0.01 0.01 0.01 0.01 0.01
0.00 0.00 0.00 0.00 0.00 0.00 0.00 0.00 0.00 0.00 0.00 0.00 0.00 0.00 0.00 0.00 0.00 0.00 0.00 0.01 0.01 0.01 0.01 0.01 0.01 0.01 0.01 0.01 0.01 0.01 0.01 0.01 0.01 0.01 0.01 0.01 0.01 0.01 0.01 0.01 0.01 0.01 0.01 0.01
0.00 0.00 0.00 0.00 0.00 0.00 0.00 0.00 0.00 0.00 0.00 0.00 0.00 0.00 0.00 0.00 0.00 0.00 0.00 0.00 0.00 0.00 0.00 0.00 0.00 0.01 0.01 0.01 0.01 0.01 0.01 0.01 0.01 0.01 0.01 0.01 0.01 0.01 0.01 0.01 0.01 0.01 0.01 0.01
0.01 0.00 0.00 0.00 0.00 0.00 0.00 0.00 0.00 0.00 0.00 0.00 0.00 0.00 0.00 0.00 0.00 0.00 0.00 0.00 0.00 0.00 0.00 0.00 0.00 0.01 0.01 0.01 0.01 0.01 0.01 0.01 0.01 0.01 0.01 0.01 0.01 0.01 0.01 0.01 0.01 0.01 0.01 0.01
0.00 0.00 0.00 0.00 0.00 0.00 0.00 0.00 0.00 0.00 0.00 0.00 0.00 0.00 0.00 0.00 0.00 0.00 0.00 0.00 0.00 0.00 0.00 0.00 0.00 0.00 0.00 0.00 0.00 0.00 0.01 0.01 0.01 0.01 0.01 0.02 0.02 0.01 0.01 0.01 0.01 0.01 0.01 0.01
0.00 0.00 0.00 0.00 0.00 0.00 0.00 0.00 0.00 0.00 0.00 0.00 0.00 0.00 0.00 0.00 0.00 0.00 0.00 0.00 0.00 0.00 0.00 0.00 0.00 0.00 0.00 0.00 0.00 0.00 0.01 0.01 0.01 0.01 0.01 0.01 0.01 0.02 0.02 0.02 0.02 0.01 0.01 0.01
0.00 0.00 0.00 0.00 0.00 0.00 0.00 0.00 0.00 0.00 0.00 0.00 0.00 0.00 0.00 0.00 0.00 0.00 0.00 0.00 0.00 0.00 0.00 0.00 0.00 0.00 0.00 0.00 0.01 0.01 0.01 0.01 0.01 0.01 0.01 0.01 0.01 0.01 0.02 0.02 0.02 0.02 0.02 0.02
0.00 0.00 0.00 0.00 0.00 0.00 0.00 0.01 0.01 0.01 0.00 0.00 0.00 0.00 0.00 0.00 0.00 0.00 0.00 0.00 0.00 0.00 0.00 0.00 0.00 0.00 0.00 0.01 0.01 0.01 0.00 0.00 0.01 0.01 0.01 0.01 0.01 0.01 0.01 0.01 0.02 0.02 0.02 0.02
0.00 0.00 0.00 0.00 0.00 0.00 0.00 0.01 0.02 0.01 0.01 0.01 0.00 0.00 0.00 0.00 0.00 0.00 0.00 0.00 0.00 0.00 0.00 0.01 0.00 0.00 0.00 0.00 0.00 0.00 0.00 0.00 0.00 0.01 0.01 0.01 0.01 0.01 0.01 0.01 0.01 0.01 0.01 0.01
MSLP
1009.04 1008.83 1008.61 1008.40 1008.18 1007.96 1007.71 1007.43 1007.12 1006.76 1006.38 1005.97 1005.56 1005.17 1004.80 1004.46 1004.16 1003.87 1003.60 1003.32 1003.03 1002.74 1002.47 1002.24 1002.09 1002.04 1002.14 1002.39 1002.79 1003.32 1003.95 1004.65 1005.37 1006.06 1006.72 1007.31 1007.84 1008.32 1008.77 1009.20 1009.62 1010.05 1010.48 1010.90
1008.82 1008.56 1008.26 1007.94 1007.62 1007.28 1006.96 1006.65 1006.35 1006.07 1005.83 1005.61 1005.42 1005.26 1005.10 1004.94 1004.77 1004.54 1004.27 1003.94 1003.55 1003.13 1002.71 1002.32 1002.02 1001.83 1001.80 1001.93 1002.22 1002.66 1003.22 1003.85 1004.52 1005.19 1005.83 1006.44 1007.01 1007.55 1008.06 1008.56 1009.05 1009.54 1010.02 1010.49
1008.41 1008.11 1007.78 1007.41 1007.03 1006.65 1006.30 1005.99 1005.74 1005.55 1005.43 1005.37 1005.36 1005.37 1005.39 1005.37 1005.29 1005.12 1004.84 1004.47 1004.00 1003.47 1002.92 1002.40 1001.96 1001.64 1001.47 1001.48 1001.66 1001.99 1002.44 1002.99 1003.60 1004.24 1004.87 1005.50 1006.11 1006.70 1007.29 1007.87 1008.44 1009.00 1009.54 1010.05
1007.90 1007.58 1007.23 1006.86 1006.47 1006.10 1005.77 1005.49 1005.30 1005.18 1005.16 1005.22 1005.33 1005.47 1005.59 1005.66 1005.64 1005.50 1005.23 1004.82 1004.30 1003.70 1003.06 1002.44 1001.89 1001.46 1001.17 1001.06 1001.11 1001.33 1001.68 1002.14 1002.68 1003.27 1003.90 1004.54 1005.18 1005.84 1006.49 1007.15 1007.80 1008.42 1009.03 1009.59
1007.43 1007.08 1006.73 1006.37 1006.01 1005.67 1005.38 1005.15 1005.01 1004.95 1004.99 1005.11 1005.29 1005.48 1005.65 1005.76 1005.77 1005.64 1005.37 1004.95 1004.41 1003.77 1003.09 1002.42 1001.80 1001.28 1000.90 1000.68 1000.63 1000.73 1000.98 1001.34 1001.81 1002.36 1002.96 1003.61 1004.29 1004.99 1005.71 1006.43 1007.14 1007.83 1008.48 1009.07
1007.10 1006.72 1006.35 1006.00 1005.67 1005.37 1005.12 1004.94 1004.84 1004.82 1004.88 1005.01 1005.19 1005.39 1005.55 1005.65 1005.66 1005.53 1005.26 1004.86 1004.32 1003.70 1003.02 1002.33 1001.69 1001.13 1000.68 1000.38 1000.22 1000.22 1000.36 1000.64 1001.03 1001.52 1002.09 1002.74 1003.44 1004.18 1004.94 1005.71 1006.47 1007.19 1007.87 1008.49
1006.99 1006.54 1006.14 1005.78 1005.47 1005.20 1004.99 1004.84 1004.75 1004.74 1004.78 1004.89 1005.03 1005.18 1005.30 1005.37 1005.35 1005.22 1004.96 1004.58 1004.09 1003.51 1002.87 1002.22 1001.59 1001.01 1000.52 1000.16 999.92 999.82 999.86 1000.03 1000.34 1000.76 1001.30 1001.92 1002.62 1003.37 1004.16 1004.95 1005.73 1006.48 1007.17 1007.79
1007.09 1006.56 1006.10 1005.71 1005.39 1005.14 1004.94 1004.80 1004.71 1004.67 1004.69 1004.73 1004.81 1004.89 1004.95 1004.96 1004.91 1004.78 1004.55 1004.22 1003.80 1003.29 1002.72 1002.13 1001.53 1000.96 1000.45 1000.03 999.71 999.51 999.44 999.51 999.72 1000.06 1000.53 1001.11 1001.79 1002.53 1003.31 1004.11 1004.89 1005.64 1006.33 1006.95
1007.32 1006.68 1006.15 1005.72 1005.38 1005.12 1004.92 1004.78 1004.68 1004.62 1004.58 1004.57 1004.57 1004.57 1004.57 1004.54 1004.47 1004.34 1004.15 1003.88 1003.53 1003.11 1002.63 1002.11 1001.56 1001.00 1000.47 999.99 999.59 999.29 999.11 999.06 999.15 999.39 999.77 1000.28 1000.90 1001.61 1002.36 1003.14 1003.92 1004.65 1005.34 1005.95
1007.52 1006.78 1006.18 1005.71 1005.35 1005.09 1004.89 1004.75 1004.64 1004.56 1004.48 1004.42 1004.36 1004.31 1004.26 1004.19 1004.11 1004.00 1003.85 1003.65 1003.39 1003.06 1002.66 1002.20 1001.69 1001.14 1000.59 1000.05 999.56 999.14 998.83 998.64 998.60 998.72 998.99 999.41 999.96 1000.60 1001.31 1002.06 1002.81 1003.53 1004.21 1004.83
1007.53 1006.74 1006.09 1005.60 1005.24 1004.99 1004.81 1004.69 1004.59 1004.50 1004.42 1004.33 1004.24 1004.16 1004.08 1004.00 1003.92 1003.84 1003.74 1003.60 1003.41 1003.16 1002.83 1002.42 1001.94 1001.39 1000.80 1000.19 999.60 999.06 998.62 998.29 998.11 998.09 998.24 998.54 998.99 999.56 1000.20 1000.90 1001.62 1002.33 1003.00 1003.64
1007.23 1006.43 1005.80 1005.32 1005.00 1004.79 1004.66 1004.58 1004.53 1004.47 1004.41 1004.33 1004.24 1004.15 1004.07 1004.00 1003.94 1003.89 1003.83 1003.74 1003.61 1003.41 1003.13 1002.75 1002.28 1001.72 1001.08 1000.41 999.73 999.08 998.51 998.05 997.73 997.57 997.59 997.77 998.12 998.59 999.16 999.80 1000.47 1001.15 1001.82 1002.46
1006.60 1005.85 1005.28 1004.88 1004.63 1004.51 1004.47 1004.47 1004.48 1004.49 1004.47 1004.43 1004.37 1004.30 1004.23 1004.18 1004.14 1004.11 1004.08 1004.03 1003.93 1003.76 1003.51 1003.15 1002.68 1002.10 1001.44 1000.71 999.96 999.22 998.55 997.98 997.54 997.26 997.16 997.23 997.47 997.84 998.32 998.88 999.49 1000.13 1000.77 1001.41
1005.68 1005.05 1004.60 1004.33 1004.22 1004.21 1004.28 1004.39 1004.49 1004.57 1004.62 1004.63 1004.60 1004.56 1004.52 1004.48 1004.45 1004.44 1004.42 1004.39 1004.31 1004.16 1003.92 1003.57 1003.10 1002.52 1001.84 1001.09 1000.31 999.53 998.80 998.16 997.64 997.28 997.08 997.04 997.17 997.43 997.81 998.28 998.81 999.38 999.97 1000.57
1004.62 1004.17 1003.90 1003.80 1003.83 1003.98 1004.17 1004.39 1004.59 1004.74 1004.85 1004.91 1004.92 1004.90 1004.87 1004.85 1004.82 1004.81 1004.79 1004.76 1004.68 1004.53 1004.30 1003.96 1003.51 1002.95 1002.29 1001.56 1000.79 1000.02 999.29 998.63 998.09 997.67 997.40 997.28 997.31 997.47 997.74 998.09 998.52 998.98 999.48 999.99
1003.62 1003.38 1003.31 1003.39 1003.60 1003.89 1004.20 1004.52 1004.79 1005.01 1005.16 1005.25 1005.28 1005.28 1005.25 1005.22 1005.18 1005.16 1005.12 1005.07 1004.99 1004.84 1004.62 1004.30 1003.89 1003.38 1002.78 1002.12 1001.41 1000.70 1000.02 999.40 998.87 998.44 998.13 997.96 997.90 997.95 998.09 998.32 998.61 998.94 999.30 999.68
1002.85 1002.83 1002.97 1003.24 1003.60 1004.00 1004.42 1004.80 1005.12 1005.37 1005.54 1005.63 1005.66 1005.65 1005.61 1005.55 1005.50 1005.45 1005.40 1005.33 1005.23 1005.08 1004.88 1004.60 1004.24 1003.80 1003.29 1002.73 1002.13 1001.53 1000.94 1000.40 999.92 999.51 999.20 998.98 998.84 998.79 998.81 998.89 999.02 999.19 999.39 999.61
1002.45 1002.64 1002.96 1003.38 1003.86 1004.35 1004.81 1005.22 1005.55 1005.79 1005.94 1006.02 1006.03 1005.99 1005.92 1005.85 1005.77 1005.69 1005.62 1005.53 1005.43 1005.29 1005.11 1004.87 1004.58 1004.22 1003.82 1003.38 1002.91 1002.43 1001.96 1001.52 1001.11 1000.75 1000.44 1000.19 1000.00 999.85 999.75 999.68 999.65 999.65 999.67 999.71
1002.48 1002.84 1003.30 1003.82 1004.36 1004.88 1005.34 1005.73 1006.02 1006.22 1006.34 1006.38 1006.35 1006.29 1006.21 1006.11 1006.02 1005.92 1005.83 1005.74 1005.63 1005.50 1005.35 1005.15 1004.92 1004.65 1004.34 1004.01 1003.67 1003.31 1002.96 1002.61 1002.29 1001.98 1001.69 1001.42 1001.17 1000.94 1000.73 1000.53 1000.35 1000.19 1000.04 999.91
1002.89 1003.36 1003.90 1004.46 1005.01 1005.50 1005.91 1006.24 1006.48 1006.62 1006.68 1006.68 1006.63 1006.55 1006.46 1006.36 1006.26 1006.17 1006.08 1005.99 1005.89 1005.77 1005.63 1005.47 1005.28 1005.07 1004.84 1004.60 1004.34 1004.09 1003.82 1003.56 1003.30 1003.03 1002.76 1002.48 1002.20 1001.91 1001.61 1001.31 1001.01 1000.71 1000.43 1000.15
1003.55 1004.08 1004.63 1005.17 1005.67 1006.09 1006.43 1006.68 1006.84 1006.92 1006.93 1006.90 1006.84 1006.76 1006.68 1006.60 1006.53 1006.46 1006.39 1006.31 1006.21 1006.10 1005.97 1005.82 1005.66 1005.47 1005.28 1005.09 1004.89 1004.69 1004.48 1004.28 1004.06 1003.82 1003.56 1003.29 1002.98 1002.65 1002.31 1001.94 1001.56 1001.18 1000.80 1000.42
1004.32 1004.84 1005.35 1005.83 1006.24 1006.56 1006.81 1006.96 1007.05 1007.07 1007.06 1007.01 1006.96 1006.92 1006.87 1006.84 1006.81 1006.78 1006.74 1006.68 1006.60 1006.49 1006.35 1006.20 1006.02 1005.84 1005.65 1005.46 1005.28 1005.09 1004.91 1004.72 1004.53 1004.31 1004.07 1003.80 1003.50 1003.16 1002.80 1002.41 1002.01 1001.59 1001.16 1000.74
1005.05 1005.51 1005.94 1006.32 1006.62 1006.84 1006.99 1007.06 1007.08 1007.07 1007.05 1007.02 1007.00 1007.01 1007.02 1007.05 1007.07 1007.09 1007.09 1007.05 1006.98 1006.87 1006.72 1006.54 1006.34 1006.13 1005.92 1005.71 1005.50 1005.31 1005.13 1004.94 1004.76 1004.55 1004.33 1004.08 1003.80 1003.48 1003.14 1002.77 1002.37 1001.96 1001.54 1001.10
1005.64 1006.01 1006.34 1006.61 1006.80 1006.92 1006.98 1006.99 1006.97 1006.94 1006.93 1006.93 1006.96 1007.02 1007.10 1007.19 1007.28 1007.34 1007.37 1007.36 1007.29 1007.17 1007.01 1006.80 1006.57 1006.32 1006.07 1005.83 1005.60 1005.39 1005.20 1005.01 1004.82 1004.64 1004.44 1004.21 1003.97 1003.69 1003.39 1003.05 1002.70 1002.32 1001.93 1001.52
1006.06 1006.33 1006.55 1006.71 1006.80 1006.84 1006.83 1006.80 1006.76 1006.74 1006.74 1006.78 1006.86 1006.97 1007.11 1007.25 1007.38 1007.48 1007.53 1007.53 1007.47 1007.35 1007.16 1006.94 1006.68 1006.41 1006.13 1005.87 1005.62 1005.39 1005.19 1005.00 1004.83 1004.66 1004.48 1004.29 1004.09 1003.85 1003.60 1003.31 1003.00 1002.66 1002.31 1001.93
1006.32 1006.49 1006.62 1006.69 1006.71 1006.69 1006.65 1006.59 1006.55 1006.53 1006.56 1006.62 1006.73 1006.88 1007.04 1007.20 1007.35 1007.46 1007.53 1007.53 1007.46 1007.33 1007.15 1006.92 1006.66 1006.38 1006.10 1005.84 1005.59 1005.37 1005.18 1005.00 1004.84 1004.69 1004.54 1004.38 1004.20 1003.99 1003.76 1003.51 1003.23 1002.92 1002.59 1002.23
1006.48 1006.58 1006.64 1006.66 1006.63 1006.58 1006.52 1006.46 1006.42 1006.41 1006.43 1006.50 1006.61 1006.75 1006.91 1007.06 1007.19 1007.29 1007.34 1007.33 1007.26 1007.14 1006.96 1006.75 1006.51 1006.26 1006.02 1005.78 1005.57 1005.37 1005.20 1005.05 1004.90 1004.76 1004.62 1004.46 1004.28 1004.07 1003.84 1003.58 1003.30 1002.99 1002.65 1002.29
Thickness
5716 5721 5719 5715 5715 5716 5711 5710 5703 5707 5709 5714 5717 5717 5718 5718 5716 5712 5709 5706 5703 5700 5699 5698 5695 5692 5690 5686 5683 5680 5675 5670 5668 5665 5662 5659 5656 5654 5652 5650 5648 5646 5644 5642
5707 5717 5717 5712 5715 5715 5711 5711 5709 5708 5707 5717 5719 5717 5713 5710 5707 5703 5700 5699 5697 5695 5693 5691 5689 5687 5684 5681 5678 5674 5669 5665 5662 5659 5656 5653 5650 5648 5645 5643 5641 5639 5637 5635
5694 5708 5707 5697 5710 5711 5709 5710 5707 5697 5702 5711 5708 5706 5704 5702 5699 5695 5694 5692 5690 5688 5686 5684 5683 5682 5679 5676 5673 5669 5664 5660 5657 5653 5649 5646 5644 5641 5638 5636 5634 5632 5630 5628
5690 5692 5675 5698 5719 5716 5707 5706 5707 5703 5703 5703 5701 5701 5701 5698 5692 5689 5687 5685 5683 5681 5679 5678 5677 5675 5673 5670 5665 5661 5658 5654 5650 5647 5643 5640 5637 5634 5632 5630 5627 5625 5624 5622
5681 5676 5684 5696 5705 5705 5697 5692 5702 5698 5697 5697 5698 5695 5689 5690 5687 5683 5681 5678 5677 5675 5672 5670 5669 5667 5664 5660 5657 5653 5650 5647 5644 5641 5637 5633 5630 5627 5625 5623 5620 5619 5618 5616
5676 5668 5666 5681 5698 5706 5697 5678 5693 5693 5689 5688 5686 5672 5672 5681 5679 5676 5674 5672 5669 5667 5665 5663 5661 5659 5655 5651 5648 5645 5642 5640 5637 5635 5631 5627 5624 5622 5619 5617 5614 5613 5611 5610
5668 5666 5671 5683 5692 5695 5669 5667 5685 5687 5683 5680 5673 5669 5671 5673 5671 5668 5666 5664 5661 5658 5655 5653 5652 5649 5645 5643 5640 5639 5636 5633 5630 5627 5624 5621 5618 5615 5613 5610 5607 5605 5604 5603
5664 5656 5657 5678 5680 5671 5668 5678 5680 5678 5676 5672 5669 5667 5665 5663 5661 5659 5656 5655 5652 5648 5645 5644 5643 5639 5636 5633 5632 5631 5627 5624 5621 5618 5616 5614 5609 5606 5604 5601 5599 5597 5595 5594
5664 5658 5669 5673 5672 5673 5674 5670 5669 5668 5667 5664 5660 5657 5655 5653 5651 5650 5648 5645 5643 5639 5635 5634 5632 5629 5625 5624 5623 5620 5616 5613 5611 5608 5606 5604 5601 5598 5595 5592 5589 5587 5586 5585
5660 5660 5664 5665 5666 5667 5666 5663 5662 5660 5658 5655 5650 5648 5646 5644 5642 5641 5639 5636 5634 5630 5626 5622 5621 5619 5616 5615 5613 5610 5606 5603 5600 5598 5595 5593 5591 5589 5585 5583 5580 5579 5577 5575
5653 5654 5654 5654 5655 5656 5656 5656 5654 5652 5649 5646 5643 5640 5638 5636 5634 5632 5629 5627 5624 5620 5616 5613 5612 5609 5607 5605 5602 5598 5594 5592 5589 5586 5583 5581 5579 5577 5576 5574 5572 5570 5568 5567
5640 5648 5644 5643 5648 5649 5646 5645 5643 5641 5639 5638 5636 5633 5631 5628 5626 5623 5620 5617 5614 5610 5607 5604 5602 5599 5597 5595 5591 5587 5583 5580 5577 5575 5572 5569 5567 5565 5565 5565 5564 5563 5562 5559
5644 5646 5643 5642 5642 5640 5637 5636 5635 5632 5629 5627 5626 5625 5622 5619 5616 5613 5610 5606 5603 5600 5597 5595 5592 5589 5587 5584 5581 5577 5573 5570 5567 5565 5562 5560 5559 5556 5554 5553 5554 5553 5553 5551
5639 5637 5632 5632 5630 5630 5629 5627 5625 5623 5621 5619 5616 5614 5612 5609 5606 5602 5599 5596 5594 5591 5588 5585 5582 5579 5577 5574 5570 5567 5564 5561 5558 5555 5553 5551 5550 5548 5546 5544 5543 5542 5542 5541
5628 5628 5625 5624 5622 5620 5619 5616 5613 5611 5609 5607 5605 5603 5600 5597 5594 5591 5589 5587 5584 5581 5577 5575 5572 5569 5567 5564 5560 5557 5554 5552 5549 5547 5545 5543 5541 5539 5537 5536 5535 5534 5532 5531
5618 5618 5616 5613 5611 5609 5607 5605 5602 5600 5598 5596 5593 5591 5589 5587 5584 5581 5579 5576 5572 5569 5567 5564 5561 5559 5557 5553 5550 5547 5544 5543 5540 5537 5535 5533 5530 5529 5527 5526 5524 5523 5522 5520
5607 5605 5604 5602 5601 5599 5597 5595 5592 5590 5588 5585 5583 5581 5579 5576 5573 5571 5568 5566 5563 5560 5557 5554 5551 5549 5546 5543 5539 5536 5534 5532 5530 5527 5524 5522 5520 5518 5516 5515 5514 5513 5512 5511
5602 5600 5598 5595 5592 5590 5587 5585 5583 5580 5578 5576 5574 5571 5568 5565 5562 5560 5558 5556 5553 5550 5547 5544 5541 5539 5536 5532 5529 5527 5524 5521 5518 5516 5514 5513 5511 5509 5507 5506 5505 5503 5502 5501
5592 5589 5587 5585 5582 5580 5577 5575 5573 5571 5569 5566 5564 5560 5558 5556 5553 5550 5548 5545 5542 5539 5537 5534 5531 5528 5525 5523 5520 5517 5514 5512 5509 5507 5505 5503 5501 5499 5497 5496 5495 5494 5492 5491
5580 5578 5576 5573 5572 5569 5567 5565 5564 5561 5559 5556 5553 5551 5548 5546 5543 5540 5538 5534 5531 5528 5527 5524 5521 5518 5515 5513 5510 5508 5505 5503 5500 5498 5496 5494 5491 5489 5488 5486 5485 5483 5482 5481
5568 5566 5564 5562 5560 5558 5557 5555 5553 5551 5549 5546 5543 5540 5538 5536 5533 5530 5527 5523 5522 5519 5517 5514 5511 5508 5505 5503 5501 5499 5496 5494 5492 5489 5487 5485 5483 5481 5479 5477 5476 5474 5473 5471
5557 5556 5553 5552 5550 5548 5547 5545 5543 5541 5538 5536 5534 5531 5528 5525 5523 5520 5517 5513 5511 5509 5506 5503 5501 5498 5496 5494 5491 5489 5487 5484 5482 5480 5478 5475 5473 5472 5470 5468 5466 5465 5463 5462
5548 5547 5544 5542 5541 5539 5538 5536 5534 5531 5528 5526 5523 5520 5518 5514 5512 5508 5505 5503 5501 5498 5495 5492 5491 5489 5487 5483 5481 5479 5477 5475 5472 5469 5467 5465 5463 5461 5460 5458 5456 5455 5453 5451
5539 5537 5535 5533 5531 5529 5527 5526 5523 5521 5519 5516 5514 5511 5508 5504 5502 5499 5496 5493 5490 5487 5484 5482 5480 5478 5476 5473 5471 5469 5466 5464 5462 5459 5457 5455 5453 5451 5449 5448 5446 5445 5443 5441
5529 5528 5526 5524 5521 5519 5518 5516 5513 5511 5509 5506 5504 5501 5498 5495 5491 5489 5486 5483 5480 5477 5474 5472 5470 5468 5465 5463 5461 5459 5457 5454 5452 5449 5447 5444 5442 5440 5438 5437 5436 5434 5432 5431
5520 5518 5516 5514 5512 5509 5507 5505 5502 5500 5498 5496 5494 5491 5488 5485 5482 5479 5476 5474 5471 5468 5465 5463 5460 5458 5456 5454 5452 5450 5448 5446 5443 5440 5438 5435 5432 5430 5428 5427 5425 5424 5423 5422
5510 5508 5506 5504 5502 5500 5498 5495 5492 5490 5488 5486 5483 5481 5478 5475 5473 5470 5468 5465 5462 5459 5457 5454 5452 5449 5447 5445 5443 5441 5439 5437 5434 5431 5429 5426 5424 5421 5419 5418 5416 5415 5414 5412